Weather History for Orange, MA

Change the Weather History Date:

Monday, July 22, 2013

  Actual Average Record
Temperature  
Mean Temperature 74 °F -  
Max Temperature 84 °F 78 °F 100 °F (2011)
Min Temperature 63 °F 55 °F 48 °F (1996)
Cooling Degree Days 8    
Growing Degree Days 24 (Base 50)    
Moisture  
Dew Point 65 °F    
Average Humidity 75    
Maximum Humidity 93    
Minimum Humidity 49    
Precipitation  
Precipitation 0.00 in - - ()
Sea Level Pressure  
Sea Level Pressure 29.95 in    
Wind  
Wind Speed 2 mph (ESE)    
Max Wind Speed 9 mph    
Max Gust Speed 16 mph    
Visibility 10 miles    
Events Rain    
Averages and records for this station are not official NWS values.
T = Trace of Precipitation, MM = Missing Value Source: NWS Daily Summary

Daily Weather History Graph

Daily Weather History Graph

Search for Another Location

Airport:

Trip Planner

Search our weather history database for the weather conditions in past years. The results will help you decide how hot, cold, wet, or windy it might be!

Date:

Astronomy

Jul. 22, 2013 Rise Set
Actual Time 5:31 AM EDT 8:19 PM EDT
Civil Twilight 4:58 AM EDT 8:52 PM EDT
Nautical Twilight 4:16 AM EDT 9:33 PM EDT
Astronomical Twilight 3:28 AM EDT 10:21 PM EDT
Moon 8:00 PM EDT (7/22) 5:25 AM EDT (7/22)
Length of Visible Light 15h 53m
Length of Day
14h 47m
Full, 100% of the Moon is Illuminated
Jul 22
Full
Jul 22
Full
Jul 29
Last Quarter
Aug 6
New
Aug 14
First Quarter

Hourly Weather History & Observations

Time (EDT) Temp. Heat Index Dew Point Humidity Pressure Visibility Wind Dir Wind Speed Gust Speed Precip Events Conditions
12:52 AM 68.0 °F - 64.9 °F 90% 29.99 in 10.0 mi Calm Calm - N/A   Clear
1:52 AM 66.9 °F - 64.9 °F 93% 29.98 in 10.0 mi Calm Calm - N/A   Partly Cloudy
2:52 AM 64.9 °F - 63.0 °F 93% 29.98 in 10.0 mi Calm Calm - N/A   Clear
3:52 AM 64.0 °F - 62.1 °F 93% 29.98 in 10.0 mi Calm Calm - N/A   Clear
4:52 AM 64.0 °F - 62.1 °F 93% 29.99 in 10.0 mi Calm Calm - N/A   Clear
5:52 AM 63.0 °F - 61.0 °F 93% 29.99 in 10.0 mi Calm Calm - N/A   Clear
6:52 AM 66.0 °F - 63.0 °F 90% 30.00 in 10.0 mi NNW 3.5 mph - N/A   Partly Cloudy
7:52 AM 70.0 °F - 64.0 °F 81% 30.00 in 10.0 mi Calm Calm - N/A   Clear
7:59 AM 69.8 °F - 64.4 °F 83% 30.01 in 10.0 mi Calm Calm - N/A   Partly Cloudy
8:52 AM 71.1 °F - 64.9 °F 81% 30.01 in 10.0 mi East 4.6 mph - N/A   Overcast
9:52 AM 73.0 °F - 66.0 °F 79% 30.01 in 10.0 mi Calm Calm - N/A   Scattered Clouds
10:52 AM 73.9 °F - 64.9 °F 73% 30.01 in 10.0 mi Calm Calm - N/A   Mostly Cloudy
11:52 AM 78.1 °F - 66.0 °F 66% 30.00 in 10.0 mi Calm Calm - N/A   Partly Cloudy
12:52 PM 82.9 °F 84.0 °F 63.0 °F 51% 29.97 in 10.0 mi SE 6.9 mph - N/A   Partly Cloudy
1:52 PM 82.9 °F 84.4 °F 64.0 °F 53% 29.95 in 10.0 mi ESE 5.8 mph - N/A   Partly Cloudy
2:52 PM 84.9 °F 86.1 °F 64.0 °F 49% 29.94 in 10.0 mi SE 9.2 mph 16.1 mph N/A   Mostly Cloudy
3:52 PM 84.0 °F 84.9 °F 63.0 °F 49% 29.92 in 10.0 mi Variable 4.6 mph - N/A   Clear
4:52 PM 82.9 °F 84.4 °F 64.0 °F 53% 29.91 in 10.0 mi South 6.9 mph - N/A   Mostly Cloudy
5:52 PM 82.9 °F 85.4 °F 66.9 °F 58% 29.89 in 10.0 mi ESE 6.9 mph - N/A   Mostly Cloudy
6:52 PM 80.1 °F 82.3 °F 66.9 °F 64% 29.90 in 10.0 mi SE 9.2 mph - N/A   Scattered Clouds
7:52 PM 77.0 °F - 66.0 °F 69% 29.90 in 10.0 mi ESE 9.2 mph - N/A   Scattered Clouds
8:52 PM 73.9 °F - 64.9 °F 73% 29.91 in 10.0 mi SE 6.9 mph - 0.00 in Rain Light Rain
9:44 PM 73.4 °F - 64.4 °F 73% 29.91 in 10.0 mi East 4.6 mph - 0.00 in   Mostly Cloudy
9:52 PM 73.0 °F - 64.0 °F 73% 29.91 in 10.0 mi Calm Calm - 0.00 in   Mostly Cloudy
10:08 PM 73.4 °F - 64.4 °F 73% 29.91 in 10.0 mi East 3.5 mph - 0.00 in Rain Light Rain
10:52 PM 71.1 °F - 66.0 °F 84% 29.90 in 10.0 mi Calm Calm - 0.00 in Rain Light Rain
11:20 PM 71.6 °F - 66.2 °F 83% 29.89 in 10.0 mi Calm Calm - 0.00 in   Mostly Cloudy
11:47 PM 71.6 °F - 66.2 °F 83% 29.88 in 10.0 mi Calm Calm - 0.00 in Rain Light Rain
11:52 PM 71.1 °F - 66.9 °F 87% 29.88 in 10.0 mi Calm Calm - 0.00 in Rain Light Rain